Regional Weather Roundup
Issued by NWS

Home | Current Version | Previous Version | Text Only | Print | Product List | Glossary Off
Versions: 1 2 3 4 5 6 7 8 9 10 11 12 13 14 15 16 17 18 19 20 21 22 23 24 25 26 27 28 29 30

000
ASUS43 KDMX 291107
RWRIA

WEATHER ROUNDUP FOR IOWA
NATIONAL WEATHER SERVICE DES MOINES IA
600 AM CDT WED OCT 29 2014

NOTE: "FAIR" INDICATES FEW OR NO CLOUDS BELOW 12,000 FEET WITH NO
SIGNIFICANT WEATHER AND/OR OBSTRUCTIONS TO VISIBILITY.

* - THESE STATIONS ARE NOT NWS STATIONS...THUS NOT UNDER NWS
QUALITY CONTROL.  THEY ALSO DO NOT REPORT WEATHER SUCH
AS PRECIPITATION OR FOG.

IAZ001>003-012>014-020>022-031>034-043>046-291200-
   NORTHWEST IOWA

CITY           SKY/WX    TMP DP  RH WIND       PRES   REMARKS
CARROLL *      CLOUDY    43  32  65 NW10      30.15S
CHEROKEE *     CLOUDY    41  32  70 NW7       30.16S
DENISON *      CLEAR     32  32 100 CALM      30.16R
LE MARS *      MOCLDY    34  30  86 W6        30.18R WCI  29
ORANGE CITY *  CLOUDY    41  32  70 NW8         N/A
SHELDON *      CLOUDY    39  30  70 NW6G13    30.14R WCI  35
SIOUX CITY     CLEAR     29  27  92 CALM      30.20R
SPENCER        CLOUDY    40  31  70 NW10      30.14S WCI  33
STORM LAKE *   MOCLDY    39  30  70 NW9       30.16R WCI  33
$$

IAZ055>058-069>071-079>083-090>094-291200-
   SOUTHWEST IOWA

CITY           SKY/WX    TMP DP  RH WIND       PRES   REMARKS
ATLANTIC *     CLEAR     32  30  93 CALM      30.18R
AUDUBON *      CLEAR     34  27  75 CALM      30.18R
CLARINDA *     CLEAR     34  32  93 W5        30.22R WCI  30
COUNCIL BLFS * CLEAR     34  32  93 W8        30.19R WCI  27
CRESTON *      CLEAR     32  30  93 CALM      30.18R
HARLAN  *      CLEAR     32  32 100 W9        30.22R WCI  24
LAMONI         CLEAR     36  32  85 W7        30.17R WCI  30
RED OAK *      CLEAR     34  30  86 NW5       30.20S WCI  30
SHENANDOAH *   CLEAR     32  30  93 SW5       30.22R WCI  27
$$

IAZ047>049-059>061-072>074-084-291200-
   CENTRAL IOWA

CITY           SKY/WX    TMP DP  RH WIND       PRES   REMARKS
AMES           CLEAR     40  31  70 NW9       30.13R WCI  34
ANKENY *       CLEAR     43  32  65 NW9       30.14R
CHARITON *     CLOUDY    37  32  81 W7        30.15S WCI  32
DES MOINES     MOCLDY    44  32  62 NW10      30.15R
GRINNELL*      MOCLDY    43  32  65 W8        30.12R
KNOXVILLE *    CLOUDY    39  34  81 W7        30.13R WCI  34
MARSHALLTOWN   CLEAR     38  32  79 NW13      30.11R WCI  30
PELLA *        PTCLDY    39  36  87 W6        30.14R WCI  35
PERRY *        CLOUDY    41  32  70 NW6       30.16R
$$

IAZ004>006-015-016-023>025-035-036-291200-
   NORTH CENTRAL IOWA

CITY           SKY/WX    TMP DP  RH WIND       PRES   REMARKS
ALGONA *       MOCLDY    36  32  87 NW9       30.13R WCI  29
CLARION *      PTCLDY    36  32  87 W9G15     30.11S WCI  29
ESTHERVILLE    CLOUDY    37  30  75 NW12      30.13R WCI  29
FORT DODGE *   CLEAR     37  28  70 NW6       30.14R WCI  33
MASON CITY     CLOUDY    39  30  70 NW18      30.10R WCI  30
FOREST CITY *  CLOUDY    39  32  75 NW18G24   30.09S WCI  30
IOWA FALLS *   CLOUDY    39  32  75 W8        30.11S WCI  34
$$

IAZ007>011-017>019-026>030-037>042-050>054-066-291200-
   NORTHEAST IOWA

CITY           SKY/WX    TMP DP  RH WIND       PRES   REMARKS
CEDAR RAPIDS   CLEAR     39  32  76 NW12      30.08R WCI  32
CHARLES CITY * PTCLDY    37  30  75 NW9       30.08R WCI  31
CLINTON *      MOCLDY    37  28  70 W7        30.08R WCI  32
DECORAH *      CLOUDY    39  30  70 NW10G17   30.03R WCI  32
DUBUQUE        CLOUDY    40  31  70 NW12      30.04R WCI  33
MONTICELLO *   CLOUDY    43  32  65 NW13G20   30.05S
OELWEIN *      CLOUDY    41  30  65 NW17G29   30.07R
WATERLOO       CLOUDY    41  31  67 NW9       30.08R
$$

IAZ064-065-067-068-078-291200-
   EAST CENTRAL IOWA

CITY           SKY/WX    TMP DP  RH WIND       PRES   REMARKS
DAVENPORT      CLEAR     39  28  64 NW10      30.07R WCI  32
IOWA CITY      CLEAR     42  32  67 NW8       30.11R
MT. PLEASANT * CLOUDY    39  34  81 W3        30.12R
MUSCATINE *    PTCLDY    43  30  61 W8        30.10R
QUAD CITIES    PTCLDY    44  28  53 NW13      30.07R
$$

IAZ062-063-075>077-085>089-095>099-291200-
   SOUTHEAST IOWA

CITY           SKY/WX    TMP DP  RH WIND       PRES   REMARKS
BURLINGTON     CLOUDY    39  34  82 W5        30.11R
FAIRFIELD *    CLOUDY    41  34  75 W7        30.12R
FORT MADISON * CLOUDY    43  36  75 W7        30.13R
KEOKUK *       CLEAR     39  34  81 W8        30.13R WCI  34
OSKALOOSA *      N/A     36  32  87 W8        30.12S WCI  29
CENTERVILLE *  MOCLDY    37  34  87 W6        30.17R WCI  33
OTTUMWA        PTCLDY    39  32  76 W8        30.12S WCI  33
WASHINGTON *   MOCLDY    39  36  87 W7        30.10S WCI  34
$$

ABBREVIATIONS USED IN REMARKS
   TC - TEMPERATURES IN CELSIUS
  WCI - WIND CHILL INDEX
   HX - HEAT INDEX
  VSB - VISIBILITY
$$




USA.gov is the U.S. government's official web portal to all federal, state and local government web resources and services.